| time (UTC) | temp C | wind direction | speed KPH | gust KPH | rain 1hr cm | rain 24hr cm | rain mn cm | humidity % | barometer mb |
| 20260503053059 | 13 | 231 | 0.0 | 0.0 | 0.00 | 0.00 | 0.00 | 45 | 1008.4 |
| 20260503051558 | 12 | 231 | 0.0 | 0.0 | 0.00 | 0.00 | 0.00 | 45 | 1008.5 |
| 20260503050057 | 12 | 231 | 0.0 | 0.0 | 0.00 | 0.00 | 0.00 | 45 | 1008.5 |
| 20260503044557 | 12 | 231 | 0.0 | 0.0 | 0.00 | 0.00 | 0.00 | 43 | 1008.5 |
| 20260503043056 | 13 | 231 | 0.0 | 0.0 | 0.00 | 0.00 | 0.00 | 40 | 1008.3 |
| 20260503041556 | 14 | 231 | 0.0 | 0.0 | 0.00 | 0.00 | 0.00 | 38 | 1008.1 |
| 20260503040111 | 15 | 231 | 0.0 | 0.0 | 0.00 | 0.00 | 0.00 | 35 | 1008.3 |
| 20260503034555 | 16 | 231 | 0.0 | 0.0 | 0.00 | 0.00 | 0.00 | 32 | 1008.3 |
| 20260503033054 | 17 | 231 | 0.0 | 0.0 | 0.00 | 0.00 | 0.00 | 31 | 1008.3 |
| 20260503031604 | 17 | 231 | 0.0 | 0.0 | 0.00 | 0.00 | 0.00 | 29 | 1008.1 |
| 20260503030054 | 18 | 231 | 0.0 | 0.0 | 0.00 | 0.00 | 0.00 | 27 | 1008.2 |
| 20260503024552 | 19 | 231 | 0.0 | 0.0 | 0.00 | 0.00 | 0.00 | 25 | 1008.2 |
| 20260503023053 | 20 | 231 | 0.0 | 0.0 | 0.00 | 0.00 | 0.00 | 23 | 1008.2 |
| 20260503021551 | 20 | 231 | 0.0 | 0.0 | 0.00 | 0.00 | 0.00 | 23 | 1008.3 |
| 20260503020053 | 20 | 232 | 0.0 | 0.0 | 0.00 | 0.00 | 0.00 | 21 | 1008.4 |
| 20260503014606 | 20 | 225 | 3.2 | 0.0 | 0.00 | 0.00 | 0.00 | 21 | 1008.4 |
| 20260503013047 | 21 | 246 | 1.6 | 0.0 | 0.00 | 0.00 | 0.00 | 23 | 1008.6 |
| 20260503011551 | 21 | 243 | 1.6 | 0.0 | 0.00 | 0.00 | 0.00 | 25 | 1008.7 |
| 20260503010044 | 21 | 200 | 1.6 | 0.0 | 0.00 | 0.00 | 0.00 | 25 | 1008.7 |
| 20260503004543 | 21 | 219 | 1.6 | 0.0 | 0.00 | 0.00 | 0.00 | 25 | 1008.9 |
| 20260503003041 | 21 | 232 | 4.8 | 0.0 | 0.00 | 0.00 | 0.00 | 25 | 1009.1 |
| 20260503001553 | 22 | 234 | 3.2 | 0.0 | 0.00 | 0.00 | 0.00 | 26 | 1009.3 |
| 20260503000037 | 22 | 218 | 3.2 | 0.0 | 0.00 | 0.00 | 0.00 | 26 | 1009.7 |
| 20260502234540 | 21 | 216 | 1.6 | 0.0 | 0.00 | 0.00 | 0.00 | 26 | 1010.1 |
| 20260502233033 | 22 | 205 | 4.8 | 0.0 | 0.00 | 0.00 | 0.00 | 26 | 1010.3 |
| 20260502231530 | 21 | 227 | 3.2 | 0.0 | 0.00 | 0.00 | 0.00 | 27 | 1010.5 |
| 20260502230033 | 21 | 221 | 4.8 | 0.0 | 0.00 | 0.00 | 0.00 | 26 | 1010.9 |
| 20260502224527 | 21 | 175 | 3.2 | 0.0 | 0.00 | 0.00 | 0.00 | 25 | 1011.3 |
| 20260502223023 | 21 | 217 | 3.2 | 0.0 | 0.00 | 0.00 | 0.00 | 26 | 1011.5 |
| 20260502221520 | 21 | 171 | 3.2 | 0.0 | 0.00 | 0.00 | 0.00 | 26 | 1012.0 |
| 20260502220018 | 21 | 194 | 3.2 | 0.0 | 0.00 | 0.00 | 0.00 | 26 | 1012.3 |
| 20260502214516 | 20 | 244 | 4.8 | 0.0 | 0.00 | 0.00 | 0.00 | 27 | 1012.5 |
| 20260502213014 | 21 | 200 | 4.8 | 0.0 | 0.00 | 0.00 | 0.00 | 26 | 1012.7 |
| 20260502211514 | 20 | 154 | 3.2 | 0.0 | 0.00 | 0.00 | 0.00 | 27 | 1012.9 |
| 20260502210010 | 20 | 225 | 3.2 | 0.0 | 0.00 | 0.00 | 0.00 | 26 | 1013.3 |
| 20260502204507 | 20 | 229 | 1.6 | 0.0 | 0.00 | 0.00 | 0.00 | 26 | 1013.4 |
| 20260502203005 | 20 | 223 | 3.2 | 0.0 | 0.00 | 0.00 | 0.00 | 27 | 1013.6 |
| 20260502201501 | 20 | 205 | 3.2 | 0.0 | 0.00 | 0.00 | 0.00 | 27 | 1014.1 |
| 20260502200059 | 19 | 216 | 3.2 | 0.0 | 0.00 | 0.00 | 0.00 | 28 | 1014.4 |
| 20260502194556 | 20 | 227 | 1.6 | 0.0 | 0.00 | 0.00 | 0.00 | 28 | 1014.5 |
| 20260502193102 | 19 | 244 | 1.6 | 0.0 | 0.00 | 0.00 | 0.00 | 28 | 1014.6 |
| 20260502191559 | 18 | 84 | 3.2 | 0.0 | 0.00 | 0.00 | 0.00 | 29 | 1014.9 |
| 20260502190104 | 18 | 229 | 1.6 | 0.0 | 0.00 | 0.00 | 0.00 | 30 | 1015.2 |
| 20260502184556 | 18 | 227 | 1.6 | 0.0 | 0.00 | 0.00 | 0.00 | 29 | 1015.4 |
| 20260502183101 | 18 | 219 | 1.6 | 0.0 | 0.00 | 0.00 | 0.00 | 29 | 1015.7 |
| 20260502181543 | 18 | 230 | 1.6 | 0.0 | 0.00 | 0.00 | 0.00 | 31 | 1016.0 |
| 20260502163013 | 15 | 211 | 1.6 | 0.0 | 0.00 | 0.00 | 0.00 | 38 | 1017.4 |
| 20260502161507 | 14 | 215 | 1.6 | 0.0 | 0.00 | 0.00 | 0.00 | 39 | 1017.5 |
| 20260502151549 | 11 | 195 | 1.6 | 0.0 | 0.00 | 0.00 | 0.00 | 53 | 1018.1 |
| 20260502123019 | 2 | 328 | 0.0 | 0.0 | 0.00 | 0.00 | 0.00 | 84 | 1018.2 |
| 20260502121512 | 2 | 328 | 0.0 | 0.0 | 0.00 | 0.00 | 0.00 | 84 | 1018.1 |
| 20260502114507 | 2 | 328 | 0.0 | 0.0 | 0.00 | 0.00 | 0.00 | 83 | 1017.9 |
| 20260502113005 | 2 | 328 | 0.0 | 0.0 | 0.00 | 0.00 | 0.00 | 82 | 1017.8 |
| 20260502111512 | 2 | 328 | 0.0 | 0.0 | 0.00 | 0.00 | 0.00 | 81 | 1017.8 |
| 20260502110004 | 2 | 328 | 0.0 | 0.0 | 0.00 | 0.00 | 0.00 | 80 | 1017.8 |
| 20260502104501 | 3 | 328 | 0.0 | 0.0 | 0.00 | 0.00 | 0.00 | 79 | 1017.8 |
| 20260502103059 | 3 | 328 | 0.0 | 0.0 | 0.00 | 0.00 | 0.00 | 79 | 1017.6 |
| 20260502101556 | 3 | 328 | 0.0 | 0.0 | 0.00 | 0.00 | 0.00 | 79 | 1017.6 |
| 20260502071533 | 6 | 328 | 0.0 | 0.0 | 0.00 | 0.00 | 0.00 | 73 | 1016.9 |
| 20260502070032 | 6 | 328 | 0.0 | 0.0 | 0.00 | 0.00 | 0.00 | 72 | 1016.8 |
| 20260502064527 | 7 | 328 | 0.0 | 0.0 | 0.00 | 0.00 | 0.00 | 70 | 1016.7 |
| 20260502063028 | 7 | 328 | 0.0 | 0.0 | 0.00 | 0.00 | 0.00 | 68 | 1016.7 |
| 20260502061522 | 7 | 328 | 0.0 | 0.0 | 0.00 | 0.00 | 0.00 | 68 | 1016.5 |
| 20260502060021 | 7 | 328 | 0.0 | 0.0 | 0.00 | 0.00 | 0.00 | 68 | 1016.5 |
| 20260502054520 | 8 | 328 | 0.0 | 0.0 | 0.00 | 0.00 | 0.00 | 69 | 1016.5 |